Time,TemperatureF,DewpointF,PressureIn,WindDirection,WindDirectionDegrees,WindSpeedMPH,WindSpeedGustMPH,Humidity,HourlyPrecipIn,Conditions,Clouds,dailyrainin,SoftwareType,DateUTC
2013-01-25 00:01:00,16.7,1.3,30.45,NW,319,4.0,7.0,50,0.00,,CLR,0.00,VWS V14.01,2013-01-25 05:01:00,
2013-01-25 00:02:00,16.7,1.3,30.45,NW,317,10.0,10.0,50,0.00,,CLR,0.00,VWS V14.01,2013-01-25 05:02:00,
2013-01-25 00:03:00,16.7,1.3,30.45,North,350,3.0,10.0,50,0.00,,CLR,0.00,VWS V14.01,2013-01-25 05:03:00,
2013-01-25 00:08:00,16.6,1.2,30.45,NW,320,3.0,10.0,50,0.00,,CLR,0.00,VWS V14.01,2013-01-25 05:08:00,
2013-01-25 00:13:00,16.5,1.1,30.45,WNW,302,4.0,15.0,50,0.00,,CLR,0.00,VWS V14.01,2013-01-25 05:13:00,
2013-01-25 00:18:00,16.5,0.7,30.45,NW,304,2.0,15.0,49,0.00,,CLR,0.00,VWS V14.01,2013-01-25 05:18:00,
2013-01-25 00:23:00,16.4,0.6,30.45,WNW,298,5.0,15.0,49,0.00,,CLR,0.00,VWS V14.01,2013-01-25 05:23:00,
2013-01-25 00:28:00,16.4,0.6,30.45,NW,307,4.0,15.0,49,0.00,,CLR,0.00,VWS V14.01,2013-01-25 05:28:00,
2013-01-25 00:33:00,16.4,0.6,30.45,NW,306,4.0,8.0,49,0.00,,CLR,0.00,VWS V14.01,2013-01-25 05:33:00,
2013-01-25 00:38:00,16.3,0.5,30.45,NW,305,11.0,12.0,49,0.00,,CLR,0.00,VWS V14.01,2013-01-25 05:38:00,
2013-01-25 00:43:00,16.2,0.0,30.45,South,180,1.0,14.0,48,0.00,,CLR,0.00,VWS V14.01,2013-01-25 05:43:00,
2013-01-25 00:48:00,16.1,-0.1,30.46,NW,305,3.0,14.0,48,0.00,,CLR,0.00,VWS V14.01,2013-01-25 05:48:00,
2013-01-25 00:53:00,16.0,-0.2,30.45,WSW,246,0.0,14.0,48,0.00,,CLR,0.00,VWS V14.01,2013-01-25 05:53:00,
2013-01-25 00:58:00,15.9,-0.3,30.45,NW,315,1.0,14.0,48,0.00,,CLR,0.00,VWS V14.01,2013-01-25 05:58:00,
2013-01-25 01:03:00,15.8,-0.4,30.45,WNW,294,1.0,7.0,48,0.00,,CLR,0.00,VWS V14.01,2013-01-25 06:03:00,
2013-01-25 01:08:00,15.7,-0.1,30.45,NW,307,8.0,8.0,49,0.00,,CLR,0.00,VWS V14.01,2013-01-25 06:08:00,
2013-01-25 01:13:00,15.6,-0.6,30.45,West,273,5.0,9.0,48,0.00,,CLR,0.00,VWS V14.01,2013-01-25 06:13:00,
2013-01-25 01:18:00,15.5,-0.2,30.45,NW,310,3.0,9.0,49,0.00,,CLR,0.00,VWS V14.01,2013-01-25 06:18:00,
2013-01-25 01:23:00,15.4,-0.3,30.45,NNW,343,3.0,9.0,49,0.00,,CLR,0.00,VWS V14.01,2013-01-25 06:23:00,
2013-01-25 01:28:00,15.3,-0.4,30.45,NNW,347,3.0,11.0,49,0.00,,CLR,0.00,VWS V14.01,2013-01-25 06:28:00,
2013-01-25 01:33:00,15.3,-0.9,30.45,NW,326,9.0,15.0,48,0.00,,CLR,0.00,VWS V14.01,2013-01-25 06:33:00,
2013-01-25 01:38:00,15.2,-1.0,30.45,NW,313,2.0,15.0,48,0.00,,CLR,0.00,VWS V14.01,2013-01-25 06:38:00,
2013-01-25 01:43:00,15.2,-1.0,30.45,WNW,288,6.0,15.0,48,0.00,,CLR,0.00,VWS V14.01,2013-01-25 06:43:00,
2013-01-25 01:49:00,15.1,-1.0,30.45,WNW,293,4.0,15.0,48,0.00,,CLR,0.00,VWS V14.01,2013-01-25 06:49:00,
2013-01-25 01:54:00,15.1,-0.6,30.45,WNW,303,4.0,15.0,49,0.00,,CLR,0.00,VWS V14.01,2013-01-25 06:54:00,
2013-01-25 01:59:00,15.0,-0.7,30.45,West,268,6.0,15.0,49,0.00,,CLR,0.00,VWS V14.01,2013-01-25 06:59:00,
2013-01-25 02:04:00,15.0,-1.1,30.45,NW,321,4.0,8.0,48,0.00,,CLR,0.00,VWS V14.01,2013-01-25 07:04:00,
2013-01-25 02:09:00,15.0,-0.7,30.45,NW,309,1.0,8.0,49,0.00,,CLR,0.00,VWS V14.01,2013-01-25 07:09:00,
2013-01-25 02:14:00,14.9,-0.8,30.45,NW,313,3.0,8.0,49,0.00,,CLR,0.00,VWS V14.01,2013-01-25 07:14:00,
2013-01-25 02:19:00,14.8,-0.5,30.45,WNW,283,2.0,8.0,50,0.00,,CLR,0.00,VWS V14.01,2013-01-25 07:19:00,
2013-01-25 02:24:00,14.8,0.0,30.45,West,281,3.0,8.0,51,0.00,,CLR,0.00,VWS V14.01,2013-01-25 07:24:00,
2013-01-25 02:29:00,14.6,-0.2,30.45,West,277,4.0,8.0,51,0.00,,CLR,0.00,VWS V14.01,2013-01-25 07:29:00,
2013-01-25 02:34:00,14.5,-0.3,30.45,NW,311,6.0,8.0,51,0.00,,CLR,0.00,VWS V14.01,2013-01-25 07:34:00,
2013-01-25 02:39:00,14.4,0.0,30.45,NW,314,3.0,9.0,52,0.00,,CLR,0.00,VWS V14.01,2013-01-25 07:39:00,
2013-01-25 02:44:00,14.4,0.0,30.45,West,271,5.0,9.0,52,0.00,,CLR,0.00,VWS V14.01,2013-01-25 07:44:00,
2013-01-25 02:49:00,14.4,0.0,30.45,WNW,284,1.0,9.0,52,0.00,,CLR,0.00,VWS V14.01,2013-01-25 07:49:00,
2013-01-25 02:54:00,14.4,0.0,30.45,WNW,295,1.0,9.0,52,0.00,,CLR,0.00,VWS V14.01,2013-01-25 07:54:00,
2013-01-25 02:59:00,14.4,0.0,30.45,West,279,1.0,9.0,52,0.00,,CLR,0.00,VWS V14.01,2013-01-25 07:59:00,
2013-01-25 03:04:00,14.3,-0.1,30.45,NW,313,5.0,5.0,52,0.00,,CLR,0.00,VWS V14.01,2013-01-25 08:04:00,
2013-01-25 03:09:00,14.2,0.2,30.45,NW,309,5.0,6.0,53,0.00,,CLR,0.00,VWS V14.01,2013-01-25 08:09:00,
2013-01-25 03:14:00,14.1,0.1,30.45,WNW,295,2.0,6.0,53,0.00,,CLR,0.00,VWS V14.01,2013-01-25 08:14:00,
2013-01-25 03:19:00,14.0,0.0,30.45,NNW,340,1.0,6.0,53,0.00,,CLR,0.00,VWS V14.01,2013-01-25 08:19:00,
2013-01-25 03:24:00,13.9,-0.1,30.46,NW,322,2.0,6.0,53,0.00,,CLR,0.00,VWS V14.01,2013-01-25 08:24:00,
2013-01-25 03:29:00,13.9,0.7,30.46,NW,325,3.0,6.0,55,0.00,,CLR,0.00,VWS V14.01,2013-01-25 08:29:00,
2013-01-25 03:34:00,13.9,0.3,30.45,NW,309,4.0,5.0,54,0.00,,CLR,0.00,VWS V14.01,2013-01-25 08:34:00,
2013-01-25 03:39:00,13.8,0.2,30.46,NW,315,3.0,5.0,54,0.00,,CLR,0.00,VWS V14.01,2013-01-25 08:39:00,
2013-01-25 03:44:00,13.7,0.5,30.46,WNW,299,0.0,5.0,55,0.00,,CLR,0.00,VWS V14.01,2013-01-25 08:44:00,
2013-01-25 03:49:00,13.6,0.4,30.46,SSW,192,2.0,5.0,55,0.00,,CLR,0.00,VWS V14.01,2013-01-25 08:49:00,
2013-01-25 03:54:00,13.4,0.6,30.46,NW,306,0.0,5.0,56,0.00,,CLR,0.00,VWS V14.01,2013-01-25 08:54:00,
2013-01-25 03:59:00,13.2,0.8,30.45,NW,306,0.0,5.0,57,0.00,,CLR,0.00,VWS V14.01,2013-01-25 08:59:00,
2013-01-25 04:04:00,13.1,0.7,30.45,WNW,293,1.0,3.0,57,0.00,,CLR,0.00,VWS V14.01,2013-01-25 09:04:00,
2013-01-25 04:09:00,13.0,0.6,30.45,NW,306,1.0,4.0,57,0.00,,CLR,0.00,VWS V14.01,2013-01-25 09:09:00,
2013-01-25 04:15:00,13.0,0.6,30.45,WSW,256,2.0,4.0,57,0.00,,CLR,0.00,VWS V14.01,2013-01-25 09:15:00,
2013-01-25 04:20:00,13.1,1.1,30.45,WNW,296,3.0,4.0,58,0.00,,CLR,0.00,VWS V14.01,2013-01-25 09:20:00,
2013-01-25 04:25:00,13.1,1.1,30.45,NW,318,4.0,6.0,58,0.00,,CLR,0.00,VWS V14.01,2013-01-25 09:25:00,
2013-01-25 04:30:00,13.1,0.7,30.44,West,276,2.0,2.0,57,0.00,,CLR,0.00,VWS V14.01,2013-01-25 09:30:00,
2013-01-25 04:35:00,13.2,0.8,30.45,SW,229,1.0,4.0,57,0.00,,CLR,0.00,VWS V14.01,2013-01-25 09:35:00,
2013-01-25 04:40:00,12.9,0.6,30.46,SW,226,1.0,4.0,57,0.00,,CLR,0.00,VWS V14.01,2013-01-25 09:40:00,
2013-01-25 04:45:00,12.7,1.1,30.46,WNW,298,1.0,4.0,59,0.00,,CLR,0.00,VWS V14.01,2013-01-25 09:45:00,
2013-01-25 04:50:00,12.6,1.4,30.45,NW,309,2.0,4.0,60,0.00,,CLR,0.00,VWS V14.01,2013-01-25 09:50:00,
2013-01-25 04:55:00,12.5,1.3,30.46,West,278,1.0,4.0,60,0.00,,CLR,0.00,VWS V14.01,2013-01-25 09:55:00,
2013-01-25 05:00:00,12.5,1.3,30.46,WNW,295,1.0,1.0,60,0.00,,,0.00,VWS V14.01,2013-01-25 10:00:00,
2013-01-25 05:05:00,12.5,1.6,30.46,NW,318,2.0,3.0,61,0.00,,,0.00,VWS V14.01,2013-01-25 10:05:00,
2013-01-25 05:10:00,12.5,2.0,30.46,WNW,301,3.0,4.0,62,0.00,,,0.00,VWS V14.01,2013-01-25 10:10:00,
2013-01-25 05:15:00,12.6,1.7,30.47,WSW,252,3.0,4.0,61,0.00,,,0.00,VWS V14.01,2013-01-25 10:15:00,
2013-01-25 05:20:00,12.7,2.2,30.46,WNW,294,3.0,5.0,62,0.00,,,0.00,VWS V14.01,2013-01-25 10:20:00,
2013-01-25 05:25:00,12.7,2.2,30.46,WNW,291,4.0,5.0,62,0.00,,,0.00,VWS V14.01,2013-01-25 10:25:00,
2013-01-25 05:30:00,12.7,2.2,30.46,WNW,291,1.0,2.0,62,0.00,,,0.00,VWS V14.01,2013-01-25 10:30:00,
2013-01-25 05:35:00,12.7,2.2,30.47,WNW,303,3.0,4.0,62,0.00,,,0.00,VWS V14.01,2013-01-25 10:35:00,
2013-01-25 05:40:00,12.8,2.2,30.46,WNW,297,4.0,7.0,62,0.00,,,0.00,VWS V14.01,2013-01-25 10:40:00,
2013-01-25 05:45:00,12.8,2.2,30.46,NW,317,3.0,10.0,62,0.00,,,0.00,VWS V14.01,2013-01-25 10:45:00,
2013-01-25 05:50:00,12.8,2.2,30.46,NW,314,4.0,10.0,62,0.00,,,0.00,VWS V14.01,2013-01-25 10:50:00,
2013-01-25 05:55:00,13.0,2.1,30.46,WNW,286,1.0,10.0,61,0.00,,,0.00,VWS V14.01,2013-01-25 10:55:00,
2013-01-25 06:00:00,13.0,2.1,30.45,NNW,342,0.0,0.0,61,0.00,,CLR,0.00,VWS V14.01,2013-01-25 11:00:00,
2013-01-25 06:05:00,13.0,2.4,30.45,WNW,296,0.0,5.0,62,0.00,,CLR,0.00,VWS V14.01,2013-01-25 11:05:00,
2013-01-25 06:10:00,13.1,2.5,30.45,NW,316,1.0,5.0,62,0.00,,CLR,0.00,VWS V14.01,2013-01-25 11:10:00,
2013-01-25 06:15:00,13.1,2.5,30.44,WNW,297,1.0,5.0,62,0.00,,CLR,0.00,VWS V14.01,2013-01-25 11:15:00,
2013-01-25 06:20:00,13.1,2.5,30.44,NW,317,2.0,5.0,62,0.00,,CLR,0.00,VWS V14.01,2013-01-25 11:20:00,
2013-01-25 06:25:00,13.0,2.4,30.44,NW,318,0.0,5.0,62,0.00,,CLR,0.00,VWS V14.01,2013-01-25 11:25:00,
2013-01-25 06:30:00,13.0,2.4,30.44,WNW,292,1.0,1.0,62,0.00,,CLR,0.00,VWS V14.01,2013-01-25 11:30:00,
2013-01-25 06:35:00,13.2,3.0,30.44,WNW,284,1.0,5.0,63,0.00,,CLR,0.00,VWS V14.01,2013-01-25 11:35:00,
2013-01-25 06:40:00,13.4,3.2,30.44,NW,311,6.0,8.0,63,0.00,,CLR,0.00,VWS V14.01,2013-01-25 11:40:00,
2013-01-25 06:45:00,13.4,3.2,30.44,NNW,332,3.0,10.0,63,0.00,,CLR,0.00,VWS V14.01,2013-01-25 11:45:00,
2013-01-25 06:50:00,13.5,3.3,30.44,NW,321,2.0,10.0,63,0.00,,CLR,0.00,VWS V14.01,2013-01-25 11:50:00,
2013-01-25 06:55:00,13.5,3.3,30.44,WNW,300,3.0,10.0,63,0.00,,CLR,0.00,VWS V14.01,2013-01-25 11:55:00,
2013-01-25 07:00:00,13.6,3.4,30.43,NNW,333,2.0,4.0,63,0.00,,CLR,0.00,VWS V14.01,2013-01-25 12:00:00,
2013-01-25 07:05:00,13.6,3.0,30.43,NW,320,2.0,5.0,62,0.00,,CLR,0.00,VWS V14.01,2013-01-25 12:05:00,
2013-01-25 07:10:00,13.6,3.4,30.42,NNW,336,2.0,5.0,63,0.00,,CLR,0.00,VWS V14.01,2013-01-25 12:10:00,
2013-01-25 07:16:00,13.6,3.4,30.43,WSW,237,2.0,6.0,63,0.00,,CLR,0.00,VWS V14.01,2013-01-25 12:16:00,
2013-01-25 07:21:00,13.5,3.3,30.43,NW,323,3.0,6.0,63,0.00,,CLR,0.00,VWS V14.01,2013-01-25 12:21:00,
2013-01-25 07:26:00,13.6,3.4,30.43,West,260,3.0,6.0,63,0.00,,CLR,0.00,VWS V14.01,2013-01-25 12:26:00,
2013-01-25 07:31:00,13.7,3.5,30.43,NW,319,2.0,5.0,63,0.00,,CLR,0.00,VWS V14.01,2013-01-25 12:31:00,
2013-01-25 07:36:00,13.8,3.5,30.43,WNW,293,1.0,5.0,63,0.00,,CLR,0.00,VWS V14.01,2013-01-25 12:36:00,
2013-01-25 07:41:00,14.0,3.7,30.43,West,277,2.0,5.0,63,0.00,,CLR,0.00,VWS V14.01,2013-01-25 12:41:00,
2013-01-25 07:46:00,14.1,3.5,30.43,SW,234,2.0,5.0,62,0.00,,CLR,0.00,VWS V14.01,2013-01-25 12:46:00,
2013-01-25 07:51:00,14.1,3.8,30.43,NNW,341,5.0,6.0,63,0.00,,CLR,0.00,VWS V14.01,2013-01-25 12:51:00,
2013-01-25 07:56:00,14.3,4.0,30.43,WNW,292,3.0,6.0,63,0.00,,CLR,0.00,VWS V14.01,2013-01-25 12:56:00,
2013-01-25 08:01:00,14.5,3.9,30.43,WSW,240,1.0,4.0,62,0.00,,CLR,0.00,VWS V14.01,2013-01-25 13:01:00,
2013-01-25 08:06:00,14.6,4.0,30.42,West,269,4.0,4.0,62,0.00,,CLR,0.00,VWS V14.01,2013-01-25 13:06:00,
2013-01-25 08:11:00,14.7,4.1,30.42,NNW,335,2.0,7.0,62,0.00,,CLR,0.00,VWS V14.01,2013-01-25 13:11:00,
2013-01-25 08:16:00,14.9,4.2,30.42,West,276,1.0,7.0,62,0.00,,CLR,0.00,VWS V14.01,2013-01-25 13:16:00,
2013-01-25 08:21:00,15.0,4.3,30.43,WNW,285,4.0,7.0,62,0.00,,CLR,0.00,VWS V14.01,2013-01-25 13:21:00,
2013-01-25 08:26:00,15.1,4.4,30.43,West,259,2.0,7.0,62,0.00,,CLR,0.00,VWS V14.01,2013-01-25 13:26:00,
2013-01-25 08:31:00,15.2,4.2,30.44,WNW,296,4.0,4.0,61,0.00,,CLR,0.00,VWS V14.01,2013-01-25 13:31:00,
2013-01-25 08:36:00,15.3,4.6,30.44,West,277,1.0,7.0,62,0.00,,CLR,0.00,VWS V14.01,2013-01-25 13:36:00,
2013-01-25 08:41:00,15.5,4.5,30.44,WNW,285,2.0,7.0,61,0.00,,CLR,0.00,VWS V14.01,2013-01-25 13:41:00,
2013-01-25 08:46:00,15.7,4.7,30.44,NW,312,3.0,7.0,61,0.00,,CLR,0.00,VWS V14.01,2013-01-25 13:46:00,
2013-01-25 08:51:00,15.9,4.8,30.44,WNW,286,6.0,8.0,61,0.00,,CLR,0.00,VWS V14.01,2013-01-25 13:51:00,
2013-01-25 08:56:00,15.9,4.5,30.44,NNW,327,3.0,8.0,60,0.00,,CLR,0.00,VWS V14.01,2013-01-25 13:56:00,
2013-01-25 09:01:00,16.1,5.0,30.44,West,281,3.0,8.0,61,0.00,,CLR,0.00,VWS V14.01,2013-01-25 14:01:00,
2013-01-25 09:06:00,16.2,4.8,30.45,West,273,5.0,8.0,60,0.00,,CLR,0.00,VWS V14.01,2013-01-25 14:06:00,
2013-01-25 09:11:00,16.2,4.4,30.45,NW,309,4.0,8.0,59,0.00,,CLR,0.00,VWS V14.01,2013-01-25 14:11:00,
2013-01-25 09:16:00,16.3,4.9,30.44,West,275,2.0,8.0,60,0.00,,CLR,0.00,VWS V14.01,2013-01-25 14:16:00,
2013-01-25 09:21:00,16.3,4.9,30.45,WNW,294,3.0,8.0,60,0.00,,CLR,0.00,VWS V14.01,2013-01-25 14:21:00,
2013-01-25 09:26:00,16.6,5.2,30.44,NW,304,4.0,9.0,60,0.00,,CLR,0.00,VWS V14.01,2013-01-25 14:26:00,
2013-01-25 09:31:00,16.9,4.7,30.44,NW,325,1.0,3.0,58,0.00,,CLR,0.00,VWS V14.01,2013-01-25 14:31:00,
2013-01-25 09:36:00,17.1,4.9,30.44,WNW,288,4.0,7.0,58,0.00,,CLR,0.00,VWS V14.01,2013-01-25 14:36:00,
2013-01-25 09:41:00,17.0,4.8,30.44,West,266,4.0,7.0,58,0.00,,CLR,0.00,VWS V14.01,2013-01-25 14:41:00,
2013-01-25 09:46:00,17.1,4.9,30.43,West,272,2.0,7.0,58,0.00,,CLR,0.00,VWS V14.01,2013-01-25 14:46:00,
2013-01-25 09:51:00,17.2,4.6,30.43,WNW,294,3.0,7.0,57,0.00,,CLR,0.00,VWS V14.01,2013-01-25 14:51:00,
2013-01-25 09:56:00,17.4,5.2,30.43,NNW,329,2.0,7.0,58,0.00,,CLR,0.00,VWS V14.01,2013-01-25 14:56:00,
2013-01-25 10:01:00,17.9,5.2,30.43,NNW,329,3.0,5.0,57,0.00,,CLR,0.00,VWS V14.01,2013-01-25 15:01:00,
2013-01-25 10:06:00,18.3,5.2,30.43,NW,315,1.0,9.0,56,0.00,,CLR,0.00,VWS V14.01,2013-01-25 15:06:00,
2013-01-25 10:12:00,18.7,5.6,30.43,North,5,4.0,9.0,56,0.00,,CLR,0.00,VWS V14.01,2013-01-25 15:12:00,
2013-01-25 10:17:00,19.1,5.6,30.43,NW,312,3.0,9.0,55,0.00,,CLR,0.00,VWS V14.01,2013-01-25 15:17:00,
2013-01-25 10:22:00,19.3,5.4,30.42,WNW,292,4.0,9.0,54,0.00,,CLR,0.00,VWS V14.01,2013-01-25 15:22:00,
2013-01-25 10:27:00,19.2,5.3,30.42,WNW,292,4.0,9.0,54,0.00,,CLR,0.00,VWS V14.01,2013-01-25 15:27:00,
2013-01-25 10:32:00,19.2,5.7,30.42,WNW,302,5.0,7.0,55,0.00,,CLR,0.00,VWS V14.01,2013-01-25 15:32:00,
2013-01-25 10:37:00,19.3,5.4,30.42,NNW,348,2.0,7.0,54,0.00,,CLR,0.00,VWS V14.01,2013-01-25 15:37:00,
2013-01-25 10:42:00,19.3,5.0,30.41,NNW,332,3.0,7.0,53,0.00,,CLR,0.00,VWS V14.01,2013-01-25 15:42:00,
2013-01-25 10:47:00,19.5,5.6,30.41,NW,321,5.0,7.0,54,0.00,,CLR,0.00,VWS V14.01,2013-01-25 15:47:00,
2013-01-25 10:52:00,20.0,5.6,30.40,North,355,2.0,7.0,53,0.00,,CLR,0.00,VWS V14.01,2013-01-25 15:52:00,
2013-01-25 10:57:00,20.5,5.3,30.40,NNW,336,2.0,7.0,51,0.00,,CLR,0.00,VWS V14.01,2013-01-25 15:57:00,
2013-01-25 11:02:00,20.9,5.6,30.39,NNW,334,5.0,5.0,51,0.00,,CLR,0.00,VWS V14.01,2013-01-25 16:02:00,
2013-01-25 11:07:00,21.1,5.8,30.38,NNE,29,0.0,5.0,51,0.00,,CLR,0.00,VWS V14.01,2013-01-25 16:07:00,
2013-01-25 11:12:00,21.2,5.9,30.38,NNW,347,0.0,5.0,51,0.00,,CLR,0.00,VWS V14.01,2013-01-25 16:12:00,
2013-01-25 11:17:00,21.3,5.6,30.37,NNW,336,0.0,5.0,50,0.00,,CLR,0.00,VWS V14.01,2013-01-25 16:17:00,
2013-01-25 11:22:00,21.5,5.8,30.36,West,263,1.0,5.0,50,0.00,,CLR,0.00,VWS V14.01,2013-01-25 16:22:00,
2013-01-25 11:27:00,21.6,5.8,30.36,NNW,339,2.0,5.0,50,0.00,,CLR,0.00,VWS V14.01,2013-01-25 16:27:00,
2013-01-25 11:32:00,21.9,6.1,30.36,NW,321,1.0,3.0,50,0.00,,CLR,0.00,VWS V14.01,2013-01-25 16:32:00,
2013-01-25 11:37:00,22.3,6.1,30.36,NW,319,1.0,6.0,49,0.00,,CLR,0.00,VWS V14.01,2013-01-25 16:37:00,
2013-01-25 11:42:00,22.7,6.4,30.36,NNW,333,0.0,6.0,49,0.00,,CLR,0.00,VWS V14.01,2013-01-25 16:42:00,
2013-01-25 11:47:00,22.9,5.7,30.36,NNW,335,0.0,6.0,47,0.00,,CLR,0.00,VWS V14.01,2013-01-25 16:47:00,
2013-01-25 11:52:00,23.1,5.9,30.36,NNW,331,2.0,6.0,47,0.00,,CLR,0.00,VWS V14.01,2013-01-25 16:52:00,
2013-01-25 11:57:00,22.9,6.2,30.36,WSW,253,0.0,6.0,48,0.00,,CLR,0.00,VWS V14.01,2013-01-25 16:57:00,
2013-01-25 12:02:00,22.1,5.9,30.35,WSW,254,0.0,3.0,49,0.00,,CLR,0.00,VWS V14.01,2013-01-25 17:02:00,
2013-01-25 12:07:00,21.8,5.6,30.34,SSE,158,2.0,3.0,49,0.00,,CLR,0.00,VWS V14.01,2013-01-25 17:07:00,
2013-01-25 12:12:00,21.7,5.5,30.34,SSW,213,1.0,3.0,49,0.00,,CLR,0.00,VWS V14.01,2013-01-25 17:12:00,
2013-01-25 12:17:00,21.5,4.9,30.34,South,189,3.0,3.0,48,0.00,,CLR,0.00,VWS V14.01,2013-01-25 17:17:00,
2013-01-25 12:22:00,21.4,5.2,30.33,South,189,0.0,3.0,49,0.00,,CLR,0.00,VWS V14.01,2013-01-25 17:22:00,
2013-01-25 12:27:00,21.8,6.0,30.33,WNW,292,1.0,3.0,50,0.00,,CLR,0.00,VWS V14.01,2013-01-25 17:27:00,
2013-01-25 12:32:00,22.2,5.5,30.33,SSW,201,0.0,3.0,48,0.00,,CLR,0.00,VWS V14.01,2013-01-25 17:32:00,
2013-01-25 12:37:00,22.3,5.6,30.32,WSW,254,0.0,3.0,48,0.00,,CLR,0.00,VWS V14.01,2013-01-25 17:37:00,
2013-01-25 12:42:00,22.2,5.5,30.32,WSW,246,2.0,4.0,48,0.00,,CLR,0.00,VWS V14.01,2013-01-25 17:42:00,
2013-01-25 12:47:00,22.1,5.4,30.32,NNW,342,2.0,4.0,48,0.00,,CLR,0.00,VWS V14.01,2013-01-25 17:47:00,
2013-01-25 12:52:00,22.5,5.8,30.31,NW,325,1.0,4.0,48,0.00,,CLR,0.00,VWS V14.01,2013-01-25 17:52:00,
2013-01-25 12:57:00,22.9,5.7,30.31,East,97,1.0,4.0,47,0.00,,CLR,0.00,VWS V14.01,2013-01-25 17:57:00,
2013-01-25 13:02:00,22.8,5.1,30.30,SSW,201,1.0,3.0,46,0.00,,SCT100,0.00,VWS V14.01,2013-01-25 18:02:00,
2013-01-25 13:07:00,22.7,5.5,30.30,NW,304,2.0,3.0,47,0.00,,SCT100,0.00,VWS V14.01,2013-01-25 18:07:00,
2013-01-25 13:12:00,22.9,6.2,30.30,WNW,288,1.0,3.0,48,0.00,,SCT100,0.00,VWS V14.01,2013-01-25 18:12:00,
2013-01-25 13:17:00,23.1,6.8,30.29,WSW,237,2.0,3.0,49,0.00,,SCT100,0.00,VWS V14.01,2013-01-25 18:17:00,
2013-01-25 13:22:00,23.4,6.6,30.29,NW,323,3.0,4.0,48,0.00,,SCT100,0.00,VWS V14.01,2013-01-25 18:22:00,
2013-01-25 13:27:00,23.8,6.1,30.28,South,183,0.0,4.0,46,0.00,,SCT100,0.00,VWS V14.01,2013-01-25 18:27:00,
2013-01-25 13:32:00,24.0,6.2,30.28,SSW,192,2.0,4.0,46,0.00,,SCT100,0.00,VWS V14.01,2013-01-25 18:32:00,
2013-01-25 13:37:00,23.8,5.6,30.28,SSE,149,5.0,5.0,45,0.00,,SCT100,0.00,VWS V14.01,2013-01-25 18:37:00,
2013-01-25 13:42:00,23.6,5.4,30.28,SW,216,2.0,5.0,45,0.00,,SCT100,0.00,VWS V14.01,2013-01-25 18:42:00,
2013-01-25 13:47:00,23.4,5.2,30.27,South,186,1.0,5.0,45,0.00,,SCT100,0.00,VWS V14.01,2013-01-25 18:47:00,
2013-01-25 13:52:00,23.5,6.2,30.27,West,270,0.0,5.0,47,0.00,,SCT100,0.00,VWS V14.01,2013-01-25 18:52:00,
2013-01-25 13:57:00,23.9,7.5,30.27,West,275,0.0,5.0,49,0.00,,SCT100,0.00,VWS V14.01,2013-01-25 18:57:00,
2013-01-25 14:02:00,24.0,5.8,30.27,SSW,211,2.0,5.0,45,0.00,,OVC100,0.00,VWS V14.01,2013-01-25 19:02:00,
2013-01-25 14:07:00,23.6,4.9,30.26,SSW,206,2.0,6.0,44,0.00,,OVC100,0.00,VWS V14.01,2013-01-25 19:07:00,
2013-01-25 14:12:00,23.4,4.7,30.26,SSW,200,3.0,6.0,44,0.00,,OVC100,0.00,VWS V14.01,2013-01-25 19:12:00,
2013-01-25 14:17:00,23.3,5.1,30.26,ESE,122,1.0,6.0,45,0.00,,OVC100,0.00,VWS V14.01,2013-01-25 19:17:00,
2013-01-25 14:23:00,23.4,4.7,30.26,SE,143,2.0,7.0,44,0.00,,OVC100,0.00,VWS V14.01,2013-01-25 19:23:00,
2013-01-25 14:28:00,23.3,5.1,30.25,SSW,204,1.0,7.0,45,0.00,,OVC100,0.00,VWS V14.01,2013-01-25 19:28:00,
2013-01-25 14:33:00,23.2,5.0,30.25,South,191,0.0,5.0,45,0.00,,OVC100,0.00,VWS V14.01,2013-01-25 19:33:00,
2013-01-25 14:38:00,23.3,5.1,30.25,WSW,238,0.0,6.0,45,0.00,,OVC100,0.00,VWS V14.01,2013-01-25 19:38:00,
2013-01-25 14:43:00,23.3,5.1,30.25,SE,142,0.0,6.0,45,0.00,,OVC100,0.00,VWS V14.01,2013-01-25 19:43:00,
2013-01-25 14:48:00,23.1,4.9,30.24,ESE,119,1.0,6.0,45,0.00,,OVC100,0.00,VWS V14.01,2013-01-25 19:48:00,
2013-01-25 14:53:00,23.0,4.8,30.24,ESE,113,2.0,6.0,45,0.00,,OVC100,0.00,VWS V14.01,2013-01-25 19:53:00,
2013-01-25 14:58:00,22.9,4.3,30.24,SSE,153,2.0,7.0,44,0.00,,OVC100,0.00,VWS V14.01,2013-01-25 19:58:00,
2013-01-25 15:03:00,22.9,4.8,30.24,South,187,3.0,6.0,45,0.00,,OVC090,0.00,VWS V14.01,2013-01-25 20:03:00,
2013-01-25 15:08:00,23.0,4.8,30.23,WSW,246,0.0,6.0,45,0.00,,OVC090,0.00,VWS V14.01,2013-01-25 20:08:00,
2013-01-25 15:13:00,23.1,4.9,30.23,SE,130,1.0,6.0,45,0.00,,OVC090,0.00,VWS V14.01,2013-01-25 20:13:00,
2013-01-25 15:18:00,23.2,5.0,30.23,SE,138,1.0,6.0,45,0.00,,OVC090,0.00,VWS V14.01,2013-01-25 20:18:00,
2013-01-25 15:23:00,23.1,4.4,30.23,SSE,161,0.0,6.0,44,0.00,,OVC090,0.00,VWS V14.01,2013-01-25 20:23:00,
2013-01-25 15:28:00,23.0,4.8,30.23,SE,131,0.0,6.0,45,0.00,,OVC090,0.00,VWS V14.01,2013-01-25 20:28:00,
2013-01-25 15:33:00,22.9,4.8,30.23,South,182,1.0,6.0,45,0.00,,OVC090,0.00,VWS V14.01,2013-01-25 20:33:00,
2013-01-25 15:38:00,22.9,5.2,30.23,SSE,148,1.0,6.0,46,0.00,,OVC090,0.00,VWS V14.01,2013-01-25 20:38:00,
2013-01-25 15:43:00,22.9,5.2,30.23,SSE,161,1.0,6.0,46,0.00,,OVC090,0.00,VWS V14.01,2013-01-25 20:43:00,
2013-01-25 15:48:00,22.9,5.2,30.22,SE,132,2.0,6.0,46,0.00,,OVC090,0.00,VWS V14.01,2013-01-25 20:48:00,
2013-01-25 15:53:00,22.8,5.1,30.22,SE,140,0.0,6.0,46,0.00,,OVC090,0.00,VWS V14.01,2013-01-25 20:53:00,
2013-01-25 15:58:00,22.8,5.1,30.22,SE,127,2.0,6.0,46,0.00,,OVC090,0.00,VWS V14.01,2013-01-25 20:58:00,
2013-01-25 16:03:00,22.8,5.1,30.22,SE,144,1.0,3.0,46,0.00,,OVC070,0.00,VWS V14.01,2013-01-25 21:03:00,
2013-01-25 16:08:00,22.7,4.6,30.22,South,185,4.0,5.0,45,0.00,,OVC070,0.00,VWS V14.01,2013-01-25 21:08:00,
2013-01-25 16:13:00,22.5,4.9,30.23,NW,317,3.0,8.0,46,0.00,,OVC070,0.00,VWS V14.01,2013-01-25 21:13:00,
2013-01-25 16:18:00,22.1,6.8,30.22,SSE,167,3.0,12.0,51,0.00,,OVC070,0.00,VWS V14.01,2013-01-25 21:18:00,
2013-01-25 16:23:00,21.7,8.0,30.22,South,173,4.0,12.0,55,0.00,,OVC070,0.00,VWS V14.01,2013-01-25 21:23:00,
2013-01-25 16:28:00,21.5,9.0,30.22,SSW,197,2.0,12.0,58,0.00,,OVC070,0.00,VWS V14.01,2013-01-25 21:28:00,
2013-01-25 16:33:00,21.1,10.5,30.22,SSW,207,3.0,6.0,63,0.00,,OVC070,0.00,VWS V14.01,2013-01-25 21:33:00,
2013-01-25 16:38:00,20.8,11.2,30.21,South,181,3.0,6.0,66,0.00,,OVC070,0.00,VWS V14.01,2013-01-25 21:38:00,
2013-01-25 16:43:00,20.4,11.5,30.21,SSE,167,3.0,8.0,68,0.00,,OVC070,0.00,VWS V14.01,2013-01-25 21:43:00,
2013-01-25 16:48:00,20.2,12.3,30.20,South,188,2.0,8.0,71,0.00,,OVC070,0.00,VWS V14.01,2013-01-25 21:48:00,
2013-01-25 16:53:00,20.0,13.1,30.19,SE,146,3.0,8.0,74,0.00,,OVC070,0.00,VWS V14.01,2013-01-25 21:53:00,
2013-01-25 16:58:00,19.7,13.4,30.19,SE,128,3.0,8.0,76,0.00,,OVC070,0.00,VWS V14.01,2013-01-25 21:58:00,
2013-01-25 17:03:00,19.5,13.8,30.19,SSE,157,4.0,5.0,78,0.00,,,0.00,VWS V14.01,2013-01-25 22:03:00,
2013-01-25 17:08:00,19.3,14.1,30.19,SE,145,2.0,5.0,80,0.00,,,0.00,VWS V14.01,2013-01-25 22:08:00,
2013-01-25 17:13:00,19.3,14.4,30.20,South,185,2.0,5.0,81,0.00,,,0.00,VWS V14.01,2013-01-25 22:13:00,
2013-01-25 17:18:00,19.2,14.6,30.19,SE,136,2.0,5.0,82,0.00,,,0.00,VWS V14.01,2013-01-25 22:18:00,
2013-01-25 17:23:00,19.1,14.8,30.18,SSE,160,1.0,5.0,83,0.00,,,0.00,VWS V14.01,2013-01-25 22:23:00,
2013-01-25 17:28:00,19.2,15.2,30.18,SE,126,3.0,5.0,84,0.00,,,0.00,VWS V14.01,2013-01-25 22:28:00,
2013-01-25 17:33:00,19.1,15.3,30.17,East,95,0.0,3.0,85,0.00,,,0.00,VWS V14.01,2013-01-25 22:33:00,
2013-01-25 17:38:00,19.2,15.4,30.17,East,90,0.0,3.0,85,0.00,,,0.00,VWS V14.01,2013-01-25 22:38:00,
2013-01-25 17:43:00,19.2,15.7,30.17,SE,125,3.0,3.0,86,0.00,,,0.00,VWS V14.01,2013-01-25 22:43:00,
2013-01-25 17:49:00,19.1,15.6,30.17,SE,134,0.0,5.0,86,0.00,,,0.00,VWS V14.01,2013-01-25 22:49:00,
2013-01-25 17:54:00,19.1,15.6,30.16,SE,135,0.0,5.0,86,0.00,,,0.00,VWS V14.01,2013-01-25 22:54:00,
2013-01-25 17:59:00,19.0,15.5,30.16,SE,142,0.0,5.0,86,0.00,,,0.00,VWS V14.01,2013-01-25 22:59:00,
2013-01-25 18:04:00,19.1,15.6,30.16,SE,142,1.0,3.0,86,0.00,,,0.00,VWS V14.01,2013-01-25 23:04:00,
2013-01-25 18:09:00,19.0,15.5,30.16,SE,130,0.0,3.0,86,0.00,,,0.00,VWS V14.01,2013-01-25 23:09:00,
2013-01-25 18:14:00,19.1,15.9,30.16,SE,130,0.0,3.0,87,0.00,,,0.00,VWS V14.01,2013-01-25 23:14:00,
2013-01-25 18:19:00,19.1,15.9,30.16,SE,130,0.0,3.0,87,0.00,,,0.00,VWS V14.01,2013-01-25 23:19:00,
2013-01-25 18:24:00,19.1,15.9,30.16,SE,130,1.0,3.0,87,0.00,,,0.00,VWS V14.01,2013-01-25 23:24:00,
2013-01-25 18:29:00,19.2,16.2,30.16,SE,130,0.0,3.0,88,0.00,,,0.00,VWS V14.01,2013-01-25 23:29:00,
2013-01-25 18:34:00,19.3,16.1,30.16,SE,130,0.0,2.0,87,0.00,,,0.00,VWS V14.01,2013-01-25 23:34:00,
2013-01-25 18:39:00,19.3,16.1,30.17,SW,221,1.0,4.0,87,0.00,,,0.00,VWS V14.01,2013-01-25 23:39:00,
2013-01-25 18:44:00,19.3,16.1,30.16,South,185,0.0,4.0,87,0.00,,,0.00,VWS V14.01,2013-01-25 23:44:00,
2013-01-25 18:49:00,19.3,16.1,30.16,South,185,0.0,4.0,87,0.00,,,0.00,VWS V14.01,2013-01-25 23:49:00,
2013-01-25 18:54:00,19.4,16.2,30.16,South,174,2.0,4.0,87,0.00,,,0.00,VWS V14.01,2013-01-25 23:54:00,
2013-01-25 18:59:00,19.3,16.1,30.16,South,190,0.0,4.0,87,0.00,,,0.00,VWS V14.01,2013-01-25 23:59:00,
2013-01-25 19:04:00,19.3,16.1,30.15,South,190,0.0,1.0,87,0.00,,,0.00,VWS V14.01,2013-01-26 00:04:00,
2013-01-25 19:09:00,19.3,16.1,30.15,SW,223,2.0,3.0,87,0.00,,,0.00,VWS V14.01,2013-01-26 00:09:00,
2013-01-25 19:14:00,19.2,16.0,30.16,SW,223,0.0,3.0,87,0.00,,,0.00,VWS V14.01,2013-01-26 00:14:00,
2013-01-25 19:19:00,19.3,16.1,30.16,SW,223,0.0,3.0,87,0.00,,,0.00,VWS V14.01,2013-01-26 00:19:00,
2013-01-25 19:24:00,19.3,16.1,30.15,SW,223,1.0,3.0,87,0.00,,,0.00,VWS V14.01,2013-01-26 00:24:00,
2013-01-25 19:29:00,19.3,16.1,30.15,SW,223,0.0,3.0,87,0.00,,,0.00,VWS V14.01,2013-01-26 00:29:00,
2013-01-25 19:34:00,19.4,16.2,30.15,SW,217,1.0,2.0,87,0.00,,,0.00,VWS V14.01,2013-01-26 00:34:00,
2013-01-25 19:39:00,19.3,16.1,30.14,SW,217,0.0,2.0,87,0.00,,,0.00,VWS V14.01,2013-01-26 00:39:00,
2013-01-25 19:44:00,19.3,16.1,30.15,SW,217,0.0,2.0,87,0.00,,,0.00,VWS V14.01,2013-01-26 00:44:00,
2013-01-25 19:49:00,19.4,16.2,30.15,SW,217,0.0,2.0,87,0.00,,,0.00,VWS V14.01,2013-01-26 00:49:00,
2013-01-25 19:54:00,19.4,16.2,30.14,SSW,209,1.0,3.0,87,0.00,,,0.00,VWS V14.01,2013-01-26 00:54:00,
2013-01-25 19:59:00,19.3,16.1,30.14,SSW,209,1.0,3.0,87,0.00,,,0.00,VWS V14.01,2013-01-26 00:59:00,
2013-01-25 20:04:00,19.4,16.2,30.14,SSW,195,2.0,3.0,87,0.00,,,0.00,VWS V14.01,2013-01-26 01:04:00,
2013-01-25 20:09:00,19.3,15.8,30.14,South,180,0.0,3.0,86,0.00,,,0.00,VWS V14.01,2013-01-26 01:09:00,
2013-01-25 20:14:00,19.2,15.7,30.15,South,181,1.0,3.0,86,0.00,,,0.00,VWS V14.01,2013-01-26 01:14:00,
2013-01-25 20:19:00,19.1,15.6,30.15,South,181,0.0,3.0,86,0.00,,,0.00,VWS V14.01,2013-01-26 01:19:00,
2013-01-25 20:24:00,19.0,15.5,30.14,South,181,0.0,3.0,86,0.00,,,0.00,VWS V14.01,2013-01-26 01:24:00,
2013-01-25 20:29:00,18.9,15.4,30.14,South,181,0.0,3.0,86,0.00,,,0.00,VWS V14.01,2013-01-26 01:29:00,
2013-01-25 20:34:00,18.8,15.3,30.13,South,181,0.0,0.0,86,0.00,,,0.00,VWS V14.01,2013-01-26 01:34:00,
2013-01-25 20:39:00,18.6,15.1,30.13,South,181,0.0,1.0,86,0.00,,,0.00,VWS V14.01,2013-01-26 01:39:00,
2013-01-25 20:44:00,18.4,14.9,30.12,South,181,0.0,1.0,86,0.00,,,0.00,VWS V14.01,2013-01-26 01:44:00,
2013-01-25 20:49:00,18.2,14.7,30.12,South,181,0.0,1.0,86,0.00,,,0.00,VWS V14.01,2013-01-26 01:49:00,
2013-01-25 20:54:00,18.0,14.5,30.12,South,181,0.0,1.0,86,0.00,,,0.00,VWS V14.01,2013-01-26 01:54:00,
2013-01-25 20:59:00,17.7,14.2,30.12,South,181,0.0,1.0,86,0.00,,,0.00,VWS V14.01,2013-01-26 01:59:00,
2013-01-25 21:04:00,17.6,14.1,30.12,South,181,0.0,0.0,86,0.00,,,0.00,VWS V14.01,2013-01-26 02:04:00,
2013-01-25 21:09:00,17.3,14.1,30.11,South,181,0.0,0.0,87,0.00,,,0.00,VWS V14.01,2013-01-26 02:09:00,
2013-01-25 21:14:00,17.1,13.9,30.11,South,181,0.0,0.0,87,0.00,,,0.00,VWS V14.01,2013-01-26 02:14:00,
2013-01-25 21:19:00,16.8,13.6,30.11,South,181,0.0,0.0,87,0.00,,,0.00,VWS V14.01,2013-01-26 02:19:00,
2013-01-25 21:24:00,16.6,13.4,30.11,South,181,0.0,0.0,87,0.00,,,0.00,VWS V14.01,2013-01-26 02:24:00,
2013-01-25 21:29:00,16.4,13.2,30.11,South,181,0.0,0.0,87,0.00,,,0.00,VWS V14.01,2013-01-26 02:29:00,
2013-01-25 21:34:00,16.2,13.0,30.10,South,181,0.0,0.0,87,0.00,,,0.00,VWS V14.01,2013-01-26 02:34:00,
2013-01-25 21:39:00,16.0,12.8,30.10,South,181,0.0,0.0,87,0.00,,,0.00,VWS V14.01,2013-01-26 02:39:00,
2013-01-25 21:44:00,15.8,12.6,30.10,South,181,0.0,0.0,87,0.00,,,0.00,VWS V14.01,2013-01-26 02:44:00,
2013-01-25 21:49:00,15.7,12.5,30.10,South,181,0.0,0.0,87,0.00,,,0.00,VWS V14.01,2013-01-26 02:49:00,
2013-01-25 21:55:00,15.5,12.3,30.10,South,181,0.0,0.0,87,0.00,,,0.00,VWS V14.01,2013-01-26 02:55:00,
2013-01-25 22:00:00,15.4,12.2,30.10,South,181,0.0,0.0,87,0.00,,,0.00,VWS V14.01,2013-01-26 03:00:00,
2013-01-25 22:05:00,15.2,12.0,30.10,South,181,0.0,0.0,87,0.00,,CLR,0.00,VWS V14.01,2013-01-26 03:05:00,
2013-01-25 22:10:00,14.9,11.7,30.10,South,181,0.0,0.0,87,0.00,,CLR,0.00,VWS V14.01,2013-01-26 03:10:00,
2013-01-25 22:15:00,14.6,11.4,30.10,South,181,0.0,0.0,87,0.00,,CLR,0.00,VWS V14.01,2013-01-26 03:15:00,
2013-01-25 22:20:00,14.4,11.2,30.10,South,181,0.0,0.0,87,0.00,,CLR,0.00,VWS V14.01,2013-01-26 03:20:00,
2013-01-25 22:25:00,14.2,11.3,30.10,South,181,0.0,0.0,88,0.00,,CLR,0.00,VWS V14.01,2013-01-26 03:25:00,
2013-01-25 22:30:00,14.0,11.1,30.09,South,181,0.0,0.0,88,0.00,,CLR,0.00,VWS V14.01,2013-01-26 03:30:00,
2013-01-25 22:35:00,13.8,10.9,30.09,South,181,0.0,0.0,88,0.00,,CLR,0.00,VWS V14.01,2013-01-26 03:35:00,
2013-01-25 22:40:00,13.8,10.9,30.09,South,181,0.0,0.0,88,0.00,,CLR,0.00,VWS V14.01,2013-01-26 03:40:00,
2013-01-25 22:45:00,13.6,10.7,30.10,South,181,0.0,0.0,88,0.00,,CLR,0.00,VWS V14.01,2013-01-26 03:45:00,
2013-01-25 22:50:00,13.4,10.3,30.10,South,181,0.0,0.0,87,0.00,,CLR,0.00,VWS V14.01,2013-01-26 03:50:00,
2013-01-25 22:55:00,13.2,10.1,30.10,South,181,0.0,0.0,87,0.00,,CLR,0.00,VWS V14.01,2013-01-26 03:55:00,
2013-01-25 23:00:00,13.0,10.1,30.10,South,181,0.0,0.0,88,0.00,,CLR,0.00,VWS V14.01,2013-01-26 04:00:00,
2013-01-25 23:05:00,12.9,10.0,30.10,South,181,0.0,0.0,88,0.00,,CLR,0.00,VWS V14.01,2013-01-26 04:05:00,
2013-01-25 23:10:00,12.8,9.9,30.09,South,181,0.0,0.0,88,0.00,,CLR,0.00,VWS V14.01,2013-01-26 04:10:00,
2013-01-25 23:15:00,12.6,9.5,30.09,South,181,0.0,0.0,87,0.00,,CLR,0.00,VWS V14.01,2013-01-26 04:15:00,
2013-01-25 23:20:00,12.5,9.4,30.09,South,181,0.0,0.0,87,0.00,,CLR,0.00,VWS V14.01,2013-01-26 04:20:00,
2013-01-25 23:25:00,12.5,9.6,30.10,South,181,0.0,0.0,88,0.00,,CLR,0.00,VWS V14.01,2013-01-26 04:25:00,
2013-01-25 23:30:00,12.5,9.6,30.10,South,181,0.0,0.0,88,0.00,,CLR,0.00,VWS V14.01,2013-01-26 04:30:00,
2013-01-25 23:35:00,12.4,9.3,30.10,South,181,0.0,0.0,87,0.00,,CLR,0.00,VWS V14.01,2013-01-26 04:35:00,
2013-01-25 23:40:00,12.2,9.1,30.10,South,181,0.0,0.0,87,0.00,,CLR,0.00,VWS V14.01,2013-01-26 04:40:00,
2013-01-25 23:45:00,12.1,9.0,30.10,South,181,0.0,0.0,87,0.00,,CLR,0.00,VWS V14.01,2013-01-26 04:45:00,
2013-01-25 23:50:00,12.0,8.9,30.10,South,181,0.0,0.0,87,0.00,,CLR,0.00,VWS V14.01,2013-01-26 04:50:00,
2013-01-25 23:55:00,11.8,8.7,30.10,South,181,0.0,0.0,87,0.00,,CLR,0.00,VWS V14.01,2013-01-26 04:55:00,